Regional Weather Roundup
Issued by NWS Green Bay, WI

Home | Current Version | Previous Version | Graphics & Text | Print | Product List | Glossary Off
Versions: 1 2 3 4 5 6 7 8 9 10 11 12 13 14 15 16 17 18 19 20 21 22 23 24 25 26 27 28 29 30 31 32 33 34 35 36 37 38 39 40 41 42 43 44 45 46 47 48 49 50

000
ASUS43 KGRB 100000
RWRGRB

NORTH-CENTRAL AND NORTHEAST WISCONSIN REGIONAL WEATHER ROUNDUP
NATIONAL WEATHER SERVICE GREEN BAY WI
600 PM CST TUE FEB 09 2016

WIZ005-009-010>012-018-019-100100-
NORTH CENTRAL WISCONSIN

CITY           SKY/WX    TMP DP  RH WIND       PRES   REMARKS
IRONWOOD       CLOUDY    10   3  72 N12       29.97R WCI  -4
MANITOWISH WTR NOT AVBL
ARBOR VITAE    NOT AVBL
EAGLE RIVER    NOT AVBL
LAND O LAKES   NOT AVBL
RHINELANDER    LGT SNOW   9   2  73 NW6       29.91R WCI  -1
PHILLIPS       NOT AVBL
ANTIGO         NOT AVBL
TOMAHAWK       NOT AVBL
MERRILL        NOT AVBL
$$

WIZ013-073-100100-
NORTHEAST WISCONSIN

CITY           SKY/WX    TMP DP  RH WIND       PRES   REMARKS
IRON MOUNTAIN  LGT SNOW  11   3  70 NW16G26   29.87R WCI  -6
MARINETTE      CLOUDY    14   3  62 NW12G24   29.88R WCI   0
$$

WIZ017-030-035>037-045-100100-
CENTRAL WISCONSIN

CITY           SKY/WX    TMP DP  RH WIND       PRES   REMARKS
MEDFORD        NOT AVBL
WAUSAU         CLOUDY    12   1  61 NW16G30   29.93R WCI  -5
MOSINEE        CLOUDY    10   3  72 NW16G22   29.94R WCI  -7
MARSHFIELD     CLOUDY    11   0  61 NW18      29.95R WCI  -7
WISC RAPIDS    CLOUDY    12   0  58 NW10      29.98R WCI  -1
STEVENS POINT  NOT AVBL
WAUPACA        NOT AVBL
SHAWANO        CLOUDY    18   3  52 N10       29.92R WCI   6
CLINTONVILLE   NOT AVBL
WAUTOMA        NOT AVBL
$$

WIZ038-039-048-051-100100-
FOX VALLEY

CITY           SKY/WX    TMP DP  RH WIND       PRES   REMARKS
NWS GREEN BAY  CLOUDY    15   8  73 N9        29.91R WCI   3
APPLETON       MOCLDY    16   7  67 NW13      29.88R WCI   2
OSHKOSH        CLOUDY    17   7  64 N14G25    29.90R WCI   3
FOND DU LAC    FLURRIES  17  10  74 NW17      29.90R WCI   1
$$

WIZ022-050-052-100100-
EAST CENTRAL WISCONSIN

CITY           SKY/WX    TMP DP  RH WIND       PRES   REMARKS
EPHRAIM        LGT SNOW  14   7  73 NW16G23   29.84R WCI  -2
STURGEON BAY   MOCLDY    12   5  73 NW16      29.89R WCI  -4
MANITOWOC      NOT AVBL
SHEBOYGAN      LGT SNOW  17  11  77 NW8       29.88R WCI   7
$$

LMZ563-521-522-541>543-100100-
LAKESHORE

STATION/POSITION TIME  TEMP    WIND        PRES    VSBY  WAVE
                       AIR SEA DIR/SP/G                  HT/PER
                 (UTC) (F)     (DEG/KT/KT) (MB)    (MI)  (FT/S)
SHEBOYGAN LKSHOR 2300   18     320/ 15/ 17 1012.9R
KEWAUNEE LKSHORE 2300   16     350/ 17/ 24 1010.5R
CHAMBERS ISLAND  2340   15     300/ 15/ 23 1011.5R
MENOMINEE LKSHOR 2300   15     310/ 14     1010.6R
$$



USA.gov is the U.S. government's official web portal to all federal, state and local government web resources and services.